* Astronomy

Members Login
Post Info TOPIC: Asteroid 2011 VH5


L

Posts: 131433
Date:
RE: Asteroid 2011 VH5
Permalink  
 


The 140 - 310 metre wide asteroid 2011 VH5 will make a close pass (48.0 lunar distances, 0.12349 AU), travelling at 12.58 km/second, to the Earth on the 30th May 2018 @ 01:49 UT ±00:01.

See more

The Lunar Distance (LD), the distance between Earth and the Moon, equals 384,401 km, (or 0.00256 AU).



__________________


L

Posts: 131433
Date:
Permalink  
 

The 160 - 360 metre wide asteroid 2011 VH5 will make a close pass (70.9 LD, 0.1821 AU) travelling at 10.12 km/second, to the Earth-Moon system on the 24th April 2015 @ 18:48 UT ±00:03. 

See more

The Lunar Distance (LD), the distance between Earth and the Moon, equals 384,401 km, (or 0.00256 AU).



__________________


L

Posts: 131433
Date:
Permalink  
 

Orbital elements:
2011 VH5                                                 Earth MOID = 0.1221 AU
Epoch 2011 Aug. 27.0 TT = JDT 2455800.5                 MPC
M 232.59804              (2000.0)            P               Q
n   0.64317987     Peri.  160.47898     -0.98782718     -0.15324200
a   1.3291717      Node    10.81075     +0.11692826     -0.84480909
e   0.4260835      Incl.    8.19232     +0.10259263     -0.51265436
P   1.53           H   21.2           G   0.15           U   9

MPEC 2011 - V18



__________________
Page 1 of 1  sorted by
 
Quick Reply

Please log in to post quick replies.



Create your own FREE Forum
Report Abuse
Powered by ActiveBoard